When you browse on this site, cookies collect data to enhance your experience and personalize the content and advertising you see.
Visit our Privacy Policy to learn more. By continuing to use the site, you agree to this use of cookies and data.

Météo par heure à Miszkolc

Ce jour, 14 Juillet, Mardi

Heure Température Précipitation Vent Pression Humidité
00:00 +13°C° 0 mm 2 m/s 751 mmHg 80%
01:00 +12°C° 0 mm 2 m/s 751 mmHg 81%
02:00 +12°C° 0 mm 2 m/s 751 mmHg 82%
03:00 +12°C° 0 mm 2 m/s 751 mmHg 83%
04:00 +12°C° 0 mm 2 m/s 750 mmHg 84%
05:00 +13°C° 0 mm 2 m/s 750 mmHg 79%
06:00 +15°C° 0 mm 2 m/s 750 mmHg 75%
07:00 +17°C° 0 mm 2 m/s 750 mmHg 70%
08:00 +18°C° 0 mm 2 m/s 750 mmHg 65%
09:00 +20°C° 0 mm 2 m/s 750 mmHg 61%
10:00 +21°C° 0 mm 2 m/s 750 mmHg 56%
11:00 +23°C° 0 mm 2 m/s 750 mmHg 54%
12:00 +24°C° 0 mm 1 m/s 749 mmHg 52%
13:00 +24°C° 0 mm 1 m/s 749 mmHg 50%
14:00 +24°C° 0 mm 1 m/s 749 mmHg 50%
15:00 +24°C° 0 mm 1 m/s 748 mmHg 51%
16:00 +24°C° 0 mm 1 m/s 748 mmHg 51%
17:00 +23°C° 0 mm 1 m/s 748 mmHg 58%
18:00 +21°C° 0 mm 1 m/s 748 mmHg 65%
19:00 +20°C° 0 mm 1 m/s 748 mmHg 72%
20:00 +19°C° 0 mm 1 m/s 748 mmHg 73%
21:00 +16°C° 0 mm 0 m/s 748 mmHg 75%
22:00 +15°C° 0 mm 0 m/s 748 mmHg 77%
23:00 +14°C° 0 mm 0 m/s 748 mmHg 78%

Demain, 15 Juillet, Mercredi

Heure Température Précipitation Vent Pression Humidité
00:00 +15°C° 0 mm 1 m/s 748 mmHg 79%
01:00 +15°C° 0 mm 1 m/s 748 mmHg 81%
02:00 +14°C° 0 mm 1 m/s 748 mmHg 82%
03:00 +14°C° 0 mm 1 m/s 748 mmHg 83%
04:00 +13°C° 0 mm 1 m/s 748 mmHg 85%
05:00 +15°C° 0 mm 1 m/s 748 mmHg 81%
06:00 +18°C° 0 mm 1 m/s 748 mmHg 76%
07:00 +20°C° 0 mm 1 m/s 748 mmHg 72%
08:00 +21°C° 0 mm 1 m/s 748 mmHg 68%
09:00 +22°C° 0 mm 1 m/s 748 mmHg 63%
10:00 +23°C° 0 mm 2 m/s 748 mmHg 59%
11:00 +24°C° 0 mm 2 m/s 748 mmHg 56%
12:00 +25°C° 0 mm 2 m/s 748 mmHg 53%
13:00 +25°C° 0 mm 2 m/s 748 mmHg 50%
14:00 +25°C° 0 mm 2 m/s 747 mmHg 51%
15:00 +25°C° 0 mm 2 m/s 747 mmHg 51%
16:00 +25°C° 0 mm 2 m/s 747 mmHg 52%
17:00 +24°C° 0 mm 1 m/s 747 mmHg 58%
18:00 +22°C° 0 mm 1 m/s 747 mmHg 64%
19:00 +21°C° 0 mm 1 m/s 747 mmHg 70%
20:00 +20°C° 0 mm 1 m/s 747 mmHg 70%
21:00 +17°C° 0 mm 0 m/s 747 mmHg 71%
22:00 +17°C° 0 mm 0 m/s 747 mmHg 71%
23:00 +16°C° 0 mm 0 m/s 747 mmHg 73%

Après-demain, 16 Juillet, Jeudi

Heure Température Précipitation Vent Pression Humidité
00:00 +16°C° 0 mm 0 m/s 747 mmHg 74%
01:00 +16°C° 0 mm 1 m/s 747 mmHg 76%
02:00 +16°C° 0 mm 1 m/s 746 mmHg 77%
03:00 +15°C° 0 mm 1 m/s 746 mmHg 78%
04:00 +15°C° 0 mm 1 m/s 746 mmHg 80%
05:00 +18°C° 0 mm 1 m/s 746 mmHg 76%
06:00 +19°C° 0 mm 1 m/s 746 mmHg 72%
07:00 +21°C° 0 mm 1 m/s 746 mmHg 68%
08:00 +23°C° 0 mm 1 m/s 747 mmHg 64%
09:00 +24°C° 0 mm 1 m/s 747 mmHg 59%
10:00 +25°C° 0 mm 2 m/s 747 mmHg 55%
11:00 +26°C° 0 mm 2 m/s 746 mmHg 54%
12:00 +26°C° 0 mm 3 m/s 746 mmHg 53%
13:00 +27°C° 0 mm 3 m/s 746 mmHg 52%
14:00 +26°C° 0.1 mm 3 m/s 746 mmHg 54%
15:00 +26°C° 0.1 mm 3 m/s 746 mmHg 56%
16:00 +26°C° 0.1 mm 3 m/s 746 mmHg 58%
17:00 +24°C° 0.2 mm 3 m/s 746 mmHg 64%
18:00 +22°C° 0.2 mm 3 m/s 746 mmHg 69%
19:00 +20°C° 0.2 mm 2 m/s 746 mmHg 75%
20:00 +19°C° 0.1 mm 2 m/s 746 mmHg 77%
21:00 +18°C° 0.1 mm 2 m/s 746 mmHg 80%
22:00 +17°C° 0.1 mm 2 m/s 746 mmHg 83%
23:00 +17°C° 0 mm 2 m/s 747 mmHg 84%

17 Juillet, Vendredi

Heure Température Précipitation Vent Pression Humidité
00:00 +17°C° 0 mm 2 m/s 747 mmHg 86%
01:00 +16°C° 0 mm 2 m/s 747 mmHg 87%
02:00 +16°C° 0 mm 2 m/s 746 mmHg 87%
03:00 +16°C° 0 mm 2 m/s 746 mmHg 87%
04:00 +16°C° 0 mm 2 m/s 746 mmHg 86%
05:00 +17°C° 0.1 mm 2 m/s 746 mmHg 84%
06:00 +18°C° 0.1 mm 1 m/s 747 mmHg 82%
07:00 +19°C° 0.1 mm 1 m/s 747 mmHg 80%
08:00 +19°C° 0.3 mm 2 m/s 747 mmHg 74%
09:00 +20°C° 0.3 mm 2 m/s 747 mmHg 68%
10:00 +21°C° 0.3 mm 2 m/s 747 mmHg 62%
11:00 +23°C° 0.3 mm 2 m/s 747 mmHg 60%
12:00 +23°C° 0.3 mm 2 m/s 747 mmHg 58%
13:00 +24°C° 0.3 mm 2 m/s 747 mmHg 56%
14:00 +24°C° 0.1 mm 1 m/s 746 mmHg 54%
15:00 +24°C° 0.1 mm 1 m/s 746 mmHg 53%
16:00 +25°C° 0.1 mm 1 m/s 746 mmHg 51%
17:00 +23°C° 0.3 mm 1 m/s 746 mmHg 59%
18:00 +21°C° 0.3 mm 1 m/s 746 mmHg 67%
19:00 +20°C° 0.3 mm 1 m/s 746 mmHg 75%
20:00 +19°C° 0.8 mm 1 m/s 746 mmHg 79%
21:00 +17°C° 0.8 mm 2 m/s 747 mmHg 83%
22:00 +16°C° 0.8 mm 2 m/s 747 mmHg 87%
23:00 +16°C° 0.5 mm 2 m/s 747 mmHg 89%

18 Juillet, Samedi

Heure Température Précipitation Vent Pression Humidité
00:00 +15°C° 0.5 mm 2 m/s 747 mmHg 91%
01:00 +15°C° 0.5 mm 2 m/s 747 mmHg 92%
02:00 +15°C° 0.3 mm 2 m/s 747 mmHg 93%
03:00 +14°C° 0.3 mm 2 m/s 747 mmHg 93%
04:00 +14°C° 0.3 mm 2 m/s 747 mmHg 94%
05:00 +15°C° 0.1 mm 2 m/s 747 mmHg 92%
06:00 +15°C° 0.1 mm 2 m/s 747 mmHg 91%
07:00 +16°C° 0.1 mm 2 m/s 747 mmHg 90%
08:00 +16°C° 0.1 mm 2 m/s 747 mmHg 88%
09:00 +16°C° 0.1 mm 2 m/s 747 mmHg 87%
10:00 +18°C° 0.1 mm 1 m/s 747 mmHg 86%
11:00 +18°C° 0.4 mm 2 m/s 747 mmHg 80%
12:00 +20°C° 0.4 mm 2 m/s 747 mmHg 74%
13:00 +21°C° 0.4 mm 3 m/s 747 mmHg 69%
14:00 +21°C° 0.7 mm 2 m/s 746 mmHg 71%
15:00 +20°C° 0.7 mm 2 m/s 746 mmHg 74%
16:00 +20°C° 0.7 mm 2 m/s 746 mmHg 77%
17:00 +19°C° 0.1 mm 2 m/s 746 mmHg 79%
18:00 +20°C° 0.1 mm 1 m/s 746 mmHg 81%
19:00 +19°C° 0.1 mm 1 m/s 746 mmHg 83%
20:00 +17°C° 0.1 mm 2 m/s 747 mmHg 84%
21:00 +17°C° 0.1 mm 2 m/s 747 mmHg 85%
22:00 +16°C° 0.1 mm 2 m/s 747 mmHg 85%
23:00 +16°C° 0 mm 2 m/s 747 mmHg 87%

19 Juillet, Dimanche

Heure Température Précipitation Vent Pression Humidité
00:00 +15°C° 0 mm 1 m/s 748 mmHg 88%
01:00 +15°C° 0 mm 1 m/s 748 mmHg 89%
02:00 +15°C° 0 mm 1 m/s 748 mmHg 89%
03:00 +14°C° 0 mm 1 m/s 748 mmHg 90%
04:00 +14°C° 0 mm 1 m/s 748 mmHg 90%
05:00 +16°C° 0 mm 1 m/s 748 mmHg 86%
06:00 +18°C° 0 mm 1 m/s 748 mmHg 82%
07:00 +19°C° 0 mm 1 m/s 748 mmHg 78%
08:00 +21°C° 0 mm 1 m/s 748 mmHg 72%
09:00 +23°C° 0 mm 1 m/s 748 mmHg 66%
10:00 +24°C° 0 mm 1 m/s 748 mmHg 59%
11:00 +25°C° 0.1 mm 1 m/s 748 mmHg 56%
12:00 +26°C° 0.1 mm 1 m/s 748 mmHg 53%
13:00 +26°C° 0.1 mm 1 m/s 747 mmHg 50%
14:00 +26°C° 0.1 mm 1 m/s 747 mmHg 51%
15:00 +26°C° 0.1 mm 2 m/s 747 mmHg 52%
16:00 +27°C° 0.1 mm 2 m/s 747 mmHg 53%
17:00 +25°C° 0.1 mm 1 m/s 747 mmHg 60%
18:00 +23°C° 0.1 mm 1 m/s 747 mmHg 68%
19:00 +22°C° 0.1 mm 1 m/s 747 mmHg 75%
20:00 +21°C° 0 mm 1 m/s 747 mmHg 77%
21:00 +20°C° 0 mm 1 m/s 747 mmHg 78%
22:00 +20°C° 0 mm 1 m/s 747 mmHg 79%
23:00 +19°C° 0 mm 1 m/s 747 mmHg 82%
Voir plus